Simultaneous Nadir Overpasses (SNOs) Predictions

Prediction of SNOs between FY3D and METOP-C Satellite Orbit:

Table of predicted SNOs for the next 14.0 days since TLE Epoch: 12/12/2020
Index Date (FY3D) Time (FY3D) Lat,Lon (FY3D) SZA (FY3D ) Date (METOP-C) Time (METOP-C) Lat,Lon (METOP-C) SZA (METOP-C ) Distance(km) Time Diff (sec)
1 12/14/2020 23:22:24 -73.87, 0.65 82.82 12/14/2020 23:23:30 -73.78, 3.67 83.00 94.09 66
2 12/15/2020 00:13:06 73.72, 168.33 97.02 12/15/2020 00:14:13 73.67, 170.74 96.90 75.19 67
3 12/15/2020 01:03:47 -73.57, -24.01 83.14 12/15/2020 01:04:57 -73.51, -22.29 83.25 54.62 70
4 12/15/2020 01:54:29 73.42, 143.66 96.71 12/15/2020 01:55:40 73.40, 144.78 96.65 35.54 71
5 12/15/2020 02:45:11 -73.32, -48.81 83.40 12/15/2020 02:46:24 -73.25, -48.23 83.50 20.40 73
6 12/15/2020 03:35:53 73.17, 118.85 96.44 12/15/2020 03:37:06 73.18, 118.95 96.44 3.30 73
7 12/15/2020 04:26:36 -73.12, -73.74 83.61 12/15/2020 04:27:48 -73.13, -73.84 83.61 3.27 72
8 12/15/2020 05:17:21 73.17, 93.48 96.45 12/15/2020 05:18:27 73.16, 93.57 96.43 2.77 66
9 12/15/2020 06:08:04 -73.12, -99.11 83.60 12/15/2020 06:09:08 -73.16, -99.11 83.58 3.68 64
10 12/15/2020 06:58:49 73.12, 68.22 96.40 12/15/2020 06:59:49 73.14, 68.18 96.41 2.93 60
11 12/15/2020 07:49:33 -73.12,-124.47 83.60 12/15/2020 07:50:30 -73.14,-124.49 83.59 1.66 57
12 12/15/2020 08:40:18 73.12, 42.86 96.40 12/15/2020 08:41:11 73.12, 42.80 96.40 1.82 53
13 12/15/2020 09:31:02 -73.12,-149.84 83.60 12/15/2020 09:31:52 -73.12,-149.87 83.61 1.08 50
14 12/15/2020 10:21:47 73.11, 17.49 96.40 12/15/2020 10:22:33 73.10, 17.42 96.38 2.72 46
15 12/15/2020 11:12:31 -73.12,-175.21 83.59 12/15/2020 11:13:14 -73.10,-175.26 83.62 2.96 43
16 12/15/2020 12:03:16 73.11, -7.88 96.41 12/15/2020 12:03:54 73.13, -7.85 96.42 2.08 38
17 12/15/2020 12:54:00 -73.12, 159.42 83.59 12/15/2020 12:54:35 -73.13, 159.47 83.59 1.98 35
18 12/15/2020 13:44:45 73.11, -33.25 96.41 12/15/2020 13:45:16 73.11, -33.24 96.40 0.61 31
19 12/15/2020 14:35:29 -73.12, 134.05 83.59 12/15/2020 14:35:57 -73.11, 134.09 83.60 1.87 28
20 12/15/2020 15:26:14 73.11, -58.62 96.41 12/15/2020 15:26:38 73.09, -58.62 96.39 2.40 24
21 12/15/2020 16:16:57 -73.07, 108.79 83.64 12/15/2020 16:17:19 -73.09, 108.71 83.62 3.38 22
22 12/15/2020 17:07:43 73.11, -83.99 96.41 12/15/2020 17:07:59 73.12, -83.89 96.42 3.44 16
23 12/15/2020 17:58:26 -73.07, 83.42 83.63 12/15/2020 17:58:41 -73.07, 83.33 83.63 2.95 15
24 12/15/2020 18:49:12 73.11,-109.36 96.42 12/15/2020 18:49:21 73.10,-109.27 96.40 3.03 9
25 12/15/2020 19:39:55 -73.07, 58.05 83.63 12/15/2020 19:40:02 -73.10, 58.05 83.60 3.59 7
26 12/15/2020 20:30:40 73.06,-134.62 96.37 12/15/2020 20:30:43 73.08,-134.66 96.39 2.68 3
27 12/15/2020 21:21:24 -73.07, 32.68 83.63 12/15/2020 21:21:24 -73.08, 32.67 83.62 1.49 0
28 12/15/2020 22:12:09 73.06,-159.99 96.37 12/15/2020 22:12:05 73.06,-160.04 96.37 1.55 4
29 12/15/2020 23:02:53 -73.07, 7.31 83.63 12/15/2020 23:02:46 -73.06, 7.29 83.63 0.88 7
30 12/15/2020 23:53:38 73.06, 174.64 96.37 12/15/2020 23:53:27 73.04, 174.58 96.36 2.65 11
31 12/16/2020 00:44:22 -73.07, -18.06 83.62 12/16/2020 00:44:08 -73.04, -18.09 83.65 2.92 14
32 12/16/2020 01:35:07 73.06, 149.27 96.37 12/16/2020 01:34:48 73.08, 149.31 96.39 2.06 19
33 12/16/2020 02:25:51 -73.07, -43.43 83.62 12/16/2020 02:25:29 -73.08, -43.36 83.61 2.24 22
34 12/16/2020 03:16:36 73.06, 123.90 96.38 12/16/2020 03:16:10 73.06, 123.93 96.38 0.91 26
35 12/16/2020 04:07:20 -73.07, -68.80 83.62 12/16/2020 04:06:51 -73.06, -68.75 83.63 2.20 29
36 12/16/2020 04:58:05 73.06, 98.53 96.38 12/16/2020 04:57:32 73.04, 98.54 96.36 2.61 33
37 12/16/2020 05:48:48 -73.02, -94.06 83.67 12/16/2020 05:48:13 -73.04, -94.13 83.64 3.04 35
38 12/16/2020 06:39:34 73.06, 73.16 96.38 12/16/2020 06:38:53 73.07, 73.27 96.39 3.62 41
39 12/16/2020 07:30:17 -73.02,-119.43 83.67 12/16/2020 07:29:35 -73.02,-119.51 83.66 2.59 42
40 12/16/2020 08:21:03 73.06, 47.79 96.39 12/16/2020 08:20:15 73.05, 47.89 96.38 3.34 48
41 12/16/2020 09:11:46 -73.02,-144.80 83.66 12/16/2020 09:10:56 -73.05,-144.78 83.63 3.51 50
42 12/16/2020 10:02:31 73.01, 22.53 96.33 12/16/2020 10:01:37 73.03, 22.51 96.36 2.40 54
43 12/16/2020 10:53:15 -73.02,-170.17 83.66 12/16/2020 10:52:18 -73.03,-170.16 83.64 1.36 57
44 12/16/2020 11:44:00 73.01, -2.84 96.34 12/16/2020 11:42:59 73.01, -2.88 96.35 1.24 61
45 12/16/2020 12:34:44 -73.02, 164.46 83.66 12/16/2020 12:33:40 -73.01, 164.45 83.66 0.80 64
46 12/16/2020 13:25:29 73.01, -28.21 96.34 12/16/2020 13:24:21 72.99, -28.26 96.33 2.60 68
47 12/16/2020 14:16:13 -73.02, 139.09 83.66 12/16/2020 14:15:02 -72.99, 139.07 83.67 2.94 71
48 12/16/2020 15:06:57 72.96, -53.47 96.29 12/16/2020 15:05:43 72.97, -53.64 96.32 5.76 74
49 12/16/2020 15:57:39 -72.86, 114.05 83.81 12/16/2020 15:56:26 -72.87, 113.48 83.78 18.61 73
50 12/16/2020 16:48:21 72.70, -78.30 96.02 12/16/2020 16:47:10 72.70, -79.55 96.06 41.27 71
51 12/16/2020 17:39:03 -72.61, 89.20 84.08 12/16/2020 17:37:53 -72.60, 87.57 84.03 54.17 70
52 12/16/2020 18:29:45 72.45,-103.15 95.76 12/16/2020 18:28:37 72.42,-105.45 95.81 77.03 68
53 12/16/2020 19:20:27 -72.36, 64.35 84.34 12/16/2020 19:19:20 -72.32, 61.69 84.29 89.78 67



Historial Predications of SNOs between FY3D and METOP-C
